Weather History for Kansas City, MO

Change the Weather History Date:

Wednesday, February 13, 2013

  Actual Average Record
Temperature  
Mean Temperature 42 °F -  
Max Temperature 57 °F 43 °F 60 °F (2006)
Min Temperature 28 °F 27 °F 10 °F (2004)
Degree Days  
Heating Degree Days 22    
Moisture  
Dew Point 23 °F    
Average Humidity 50    
Maximum Humidity 75    
Minimum Humidity 26    
Precipitation  
Precipitation 0.00 in - - ()
Sea Level Pressure  
Sea Level Pressure 29.87 in    
Wind  
Wind Speed 6 mph (WSW)    
Max Wind Speed 14 mph    
Max Gust Speed 21 mph    
Visibility 10 miles    
Events      
Averages and records for this station are not official NWS values.
T = Trace of Precipitation, MM = Missing Value Source: NWS Daily Summary

Daily Weather History Graph

Daily Weather History Graph

Search for Another Location

Airport:

Trip Planner

Search our weather history database for the weather conditions in past years. The results will help you decide how hot, cold, wet, or windy it might be!

Date:

Astronomy

Feb. 13, 2013 Rise Set
Actual Time 7:12 AM CST 5:53 PM CST
Civil Twilight 6:44 AM CST 6:21 PM CST
Nautical Twilight 6:13 AM CST 6:52 PM CST
Astronomical Twilight 5:42 AM CST 7:23 PM CST
Moon 8:43 AM CST (2/13) 9:54 PM CST (2/13)
Length of Visible Light 11h 36m
Length of Day
10h 41m
Waxing Crescent, 14% of the Moon is Illuminated
Feb 13
Waxing Crescent
Feb 17
First Quarter
Feb 25
Full
Mar 4
Last Quarter
Mar 11
New

Hourly Weather History & Observations

Time (CST) Temp. Windchill Dew Point Humidity Pressure Visibility Wind Dir Wind Speed Gust Speed Precip Events Conditions
12:54 AM 35.1 °F 32.2 °F 21.9 °F 59% 29.96 in 10.0 mi SW 3.5 mph - N/A   Clear
1:54 AM 32.0 °F 27.5 °F 21.9 °F 66% 29.95 in 10.0 mi SSW 4.6 mph - N/A   Clear
2:54 AM 34.0 °F 28.8 °F 23.0 °F 64% 29.93 in 10.0 mi WSW 5.8 mph - N/A   Clear
3:54 AM 33.1 °F 30.0 °F 23.0 °F 66% 29.91 in 10.0 mi WSW 3.5 mph - N/A   Clear
4:54 AM 32.0 °F 27.5 °F 23.0 °F 69% 29.91 in 10.0 mi SW 4.6 mph - N/A   Clear
5:54 AM 30.0 °F 25.2 °F 21.9 °F 72% 29.91 in 10.0 mi SW 4.6 mph - N/A   Clear
6:54 AM 28.9 °F 22.8 °F 21.9 °F 75% 29.92 in 10.0 mi SW 5.8 mph - N/A   Clear
7:54 AM 30.0 °F 24.1 °F 23.0 °F 75% 29.92 in 10.0 mi SW 5.8 mph - N/A   Clear
8:54 AM 33.1 °F - 24.1 °F 70% 29.93 in 10.0 mi Calm Calm - N/A   Clear
9:54 AM 37.9 °F 34.4 °F 25.0 °F 60% 29.92 in 10.0 mi SSW 4.6 mph - N/A   Clear
10:54 AM 44.1 °F 41.5 °F 26.1 °F 49% 29.92 in 10.0 mi WSW 4.6 mph - N/A   Clear
11:54 AM 46.9 °F - 25.0 °F 42% 29.91 in 10.0 mi WSW 8.1 mph - N/A   Clear
12:54 PM 51.1 °F - 25.0 °F 36% 29.87 in 10.0 mi West 6.9 mph - N/A   Clear
1:54 PM 54.0 °F - 23.0 °F 30% 29.84 in 10.0 mi SW 11.5 mph 19.6 mph N/A   Clear
2:54 PM 57.0 °F - 23.0 °F 27% 29.81 in 10.0 mi West 9.2 mph - N/A   Clear
3:54 PM 55.9 °F - 21.9 °F 27% 29.81 in 10.0 mi SW 12.7 mph 20.7 mph N/A   Clear
4:54 PM 55.9 °F - 21.0 °F 26% 29.80 in 10.0 mi WSW 13.8 mph 20.7 mph N/A   Clear
5:54 PM 53.1 °F - 23.0 °F 31% 29.81 in 10.0 mi West 9.2 mph 16.1 mph N/A   Clear
6:54 PM 50.0 °F - 24.1 °F 36% 29.82 in 10.0 mi WSW 5.8 mph - N/A   Clear
7:54 PM 46.9 °F - 24.1 °F 41% 29.83 in 10.0 mi SW 5.8 mph - N/A   Clear
8:54 PM 46.0 °F 43.9 °F 25.0 °F 44% 29.82 in 10.0 mi SSW 4.6 mph - N/A   Clear
9:54 PM 44.1 °F 40.8 °F 24.1 °F 45% 29.82 in 10.0 mi SW 5.8 mph - N/A   Clear
10:54 PM 45.0 °F 41.2 °F 23.0 °F 42% 29.81 in 10.0 mi WSW 6.9 mph - N/A   Clear
11:54 PM 44.1 °F 40.8 °F 23.0 °F 43% 29.83 in 10.0 mi WSW 5.8 mph - N/A   Clear